M I D A S
Marine Information and Data Acquisition System
Tripno 1270 of the Zeeleeuw from 2007-05-09 11:15:16 to 2007-05-09 14:30:53
Back to CruiseResearch ActivitiesStationsMapUnderway DataData graphs

EquipmentUnitsComments
TimeDGPSUTC
LatitudeDGPSDM.mWGS84
LongitudeDGPSDM.mWGS84
SpeedMeteo Stationm/sRelative wind speed
DirectionMeteo StationdegRelative wind direction
TemperatureMeteo Stationdeg CelciusAir temperature
PressureMeteo StationPaAtmospheric pressure
HumidityMeteo Station%Relative humidity
Missing or incorrect values are displayed as -999
Metereological data collected by the RV Zeeleeuw from 2007-05-09 11:14:07 to 2007-05-09 14:40:04
Time Latitude Longitude Speed Direction Temperature Pressure Humidity
2007-05-09 11:15 51°13.605 2°56.075 -999 -999 -999 -999 -999
2007-05-09 11:16 51°13.627 2°55.995 -999 -999 -999 -999 -999
2007-05-09 11:17 51°13.669 2°55.88 -999 -999 -999 -999 -999
2007-05-09 11:18 51°13.694 2°55.784 -999 -999 -999 -999 -999
2007-05-09 11:19 51°13.698 2°55.738 -999 -999 -999 -999 -999
2007-05-09 11:20 51°13.716 2°55.746 -999 -999 -999 -999 -999
2007-05-09 11:21 51°13.772 2°55.7 -999 -999 -999 -999 -999
2007-05-09 11:22 51°13.869 2°55.615 -999 -999 -999 -999 -999
2007-05-09 11:23 51°13.997 2°55.526 -999 -999 -999 -999 -999
2007-05-09 11:24 51°14.134 2°55.426 -999 -999 -999 -999 -999
2007-05-09 11:25 51°14.268 2°55.273 -999 -999 -999 -999 -999
2007-05-09 11:26 51°14.381 2°55.037 -999 -999 -999 -999 -999
2007-05-09 11:27 51°14.486 2°54.745 -999 -999 -999 -999 -999
2007-05-09 11:28 51°14.597 2°54.437 -999 -999 -999 -999 -999
2007-05-09 11:29 51°14.679 2°54.098 -999 -999 -999 -999 -999
2007-05-09 11:30 51°14.72 2°53.742 -999 -999 -999 -999 -999
2007-05-09 11:31 51°14.732 2°53.376 -999 -999 -999 -999 -999
2007-05-09 11:32 51°14.749 2°53.014 -999 -999 -999 -999 -999
2007-05-09 11:33 51°14.765 2°52.648 -999 -999 -999 -999 -999
2007-05-09 11:34 51°14.776 2°52.276 -999 -999 -999 -999 -999
2007-05-09 11:35 51°14.791 2°51.901 -999 -999 -999 -999 -999
2007-05-09 11:36 51°14.807 2°51.524 -999 -999 -999 -999 -999
2007-05-09 11:37 51°14.822 2°51.153 -999 -999 -999 -999 -999
2007-05-09 11:38 51°14.839 2°50.77 -999 -999 -999 -999 -999
2007-05-09 11:39 51°14.857 2°50.399 -999 -999 -999 -999 -999
2007-05-09 11:40 51°14.841 2°50.019 -999 -999 -999 -999 -999
2007-05-09 11:41 51°14.816 2°49.667 -999 -999 -999 -999 -999
2007-05-09 11:42 51°14.793 2°49.291 -999 -999 -999 -999 -999
2007-05-09 11:43 51°14.774 2°48.912 -999 -999 -999 -999 -999
2007-05-09 11:44 51°14.754 2°48.531 -999 -999 -999 -999 -999
2007-05-09 11:45 51°14.735 2°48.152 -999 -999 -999 -999 -999
2007-05-09 11:46 51°14.718 2°47.774 -999 -999 -999 -999 -999
2007-05-09 11:47 51°14.701 2°47.396 -999 -999 -999 -999 -999
2007-05-09 11:48 51°14.683 2°47.018 -999 -999 -999 -999 -999
2007-05-09 11:49 51°14.665 2°46.64 -999 -999 -999 -999 -999
2007-05-09 11:50 51°14.647 2°46.266 -999 -999 -999 -999 -999
2007-05-09 11:51 51°14.63 2°45.904 -999 -999 -999 -999 -999
2007-05-09 11:52 51°14.615 2°45.543 -999 -999 -999 -999 -999
2007-05-09 11:53 51°14.576 2°45.174 -999 -999 -999 -999 -999
2007-05-09 11:54 51°14.527 2°44.808 -999 -999 -999 -999 -999
2007-05-09 11:55 51°14.463 2°44.454 -999 -999 -999 -999 -999
2007-05-09 11:56 51°14.36 2°44.112 -999 -999 -999 -999 -999
2007-05-09 11:57 51°14.238 2°43.797 -999 -999 -999 -999 -999
2007-05-09 11:58 51°14.097 2°43.488 -999 -999 -999 -999 -999
2007-05-09 11:59 51°13.959 2°43.182 -999 -999 -999 -999 -999
2007-05-09 12:00 51°13.822 2°42.873 -999 -999 -999 -999 -999
2007-05-09 12:01 51°13.685 2°42.563 -999 -999 -999 -999 -999
2007-05-09 12:02 51°13.548 2°42.254 -999 -999 -999 -999 -999
2007-05-09 12:03 51°13.411 2°41.943 -999 -999 -999 -999 -999
2007-05-09 12:04 51°13.275 2°41.631 -999 -999 -999 -999 -999
2007-05-09 12:05 51°13.139 2°41.321 -999 -999 -999 -999 -999
2007-05-09 12:06 51°13.003 2°41.012 -999 -999 -999 -999 -999
2007-05-09 12:07 51°12.868 2°40.704 -999 -999 -999 -999 -999
2007-05-09 12:08 51°12.735 2°40.395 -999 -999 -999 -999 -999
2007-05-09 12:09 51°12.602 2°40.095 -999 -999 -999 -999 -999
2007-05-09 12:10 51°12.469 2°39.786 -999 -999 -999 -999 -999
2007-05-09 12:11 51°12.334 2°39.477 -999 -999 -999 -999 -999
2007-05-09 12:12 51°12.2 2°39.168 -999 -999 -999 -999 -999
2007-05-09 12:13 51°12.065 2°38.859 -999 -999 -999 -999 -999
2007-05-09 12:14 51°11.929 2°38.55 -999 -999 -999 -999 -999
2007-05-09 12:15 51°11.795 2°38.239 -999 -999 -999 -999 -999
2007-05-09 12:16 51°11.66 2°37.93 -999 -999 -999 -999 -999
2007-05-09 12:17 51°11.516 2°37.632 -999 -999 -999 -999 -999
2007-05-09 12:18 51°11.359 2°37.349 -999 -999 -999 -999 -999
2007-05-09 12:19 51°11.182 2°37.1 -999 -999 -999 -999 -999
2007-05-09 12:20 51°10.989 2°36.889 -999 -999 -999 -999 -999
2007-05-09 12:21 51°10.79 2°36.689 -999 -999 -999 -999 -999
2007-05-09 12:22 51°10.577 2°36.552 -999 -999 -999 -999 -999
2007-05-09 12:23 51°10.349 2°36.521 -999 -999 -999 -999 -999
2007-05-09 12:24 51°10.116 2°36.509 -999 -999 -999 -999 -999
2007-05-09 12:25 51°9.888 2°36.509 -999 -999 -999 -999 -999
2007-05-09 12:26 51°9.662 2°36.531 -999 -999 -999 -999 -999
2007-05-09 12:27 51°9.436 2°36.551 -999 -999 -999 -999 -999
2007-05-09 12:28 51°9.216 2°36.585 -999 -999 -999 -999 -999
2007-05-09 12:29 51°9.098 2°36.675 -999 -999 -999 -999 -999
2007-05-09 12:30 51°9.093 2°36.771 -999 -999 -999 -999 -999
2007-05-09 12:31 51°9.121 2°36.904 -999 -999 -999 -999 -999
2007-05-09 12:32 51°9.142 2°37.059 -999 -999 -999 -999 -999
2007-05-09 12:33 51°9.151 2°37.17 -999 -999 -999 -999 -999
2007-05-09 12:34 51°9.148 2°37.188 -999 -999 -999 -999 -999
2007-05-09 12:35 51°9.144 2°37.199 -999 -999 -999 -999 -999
2007-05-09 12:36 51°9.141 2°37.209 -999 -999 -999 -999 -999
2007-05-09 12:37 51°9.139 2°37.216 -999 -999 -999 -999 -999
2007-05-09 12:38 51°9.139 2°37.221 -999 -999 -999 -999 -999
2007-05-09 12:39 51°9.139 2°37.224 -999 -999 -999 -999 -999
2007-05-09 12:40 51°9.138 2°37.224 -999 -999 -999 -999 -999
2007-05-09 12:41 51°9.139 2°37.225 -999 -999 -999 -999 -999
2007-05-09 12:42 51°9.15 2°37.257 -999 -999 -999 -999 -999
2007-05-09 12:43 51°9.129 2°37.316 -999 -999 -999 -999 -999
2007-05-09 12:44 51°9.069 2°37.323 -999 -999 -999 -999 -999
2007-05-09 12:45 51°9.011 2°37.271 -999 -999 -999 -999 -999
2007-05-09 12:46 51°8.982 2°37.193 -999 -999 -999 -999 -999
2007-05-09 12:47 51°8.97 2°37.108 -999 -999 -999 -999 -999
2007-05-09 12:48 51°8.971 2°37.025 -999 -999 -999 -999 -999
2007-05-09 12:49 51°8.963 2°36.945 -999 -999 -999 -999 -999
2007-05-09 12:50 51°8.94 2°36.866 -999 -999 -999 -999 -999
2007-05-09 12:51 51°8.917 2°36.784 -999 -999 -999 -999 -999
2007-05-09 12:52 51°8.896 2°36.698 -999 -999 -999 -999 -999
2007-05-09 12:53 51°8.874 2°36.612 -999 -999 -999 -999 -999
2007-05-09 12:54 51°8.853 2°36.526 -999 -999 -999 -999 -999
2007-05-09 12:55 51°8.843 2°36.437 -999 -999 -999 -999 -999
2007-05-09 12:56 51°8.841 2°36.347 -999 -999 -999 -999 -999
2007-05-09 12:57 51°8.841 2°36.258 -999 -999 -999 -999 -999
2007-05-09 12:58 51°8.836 2°36.169 -999 -999 -999 -999 -999
2007-05-09 12:59 51°8.823 2°36.081 -999 -999 -999 -999 -999
2007-05-09 13:00 51°8.803 2°35.995 -999 -999 -999 -999 -999
2007-05-09 13:01 51°8.781 2°35.911 -999 -999 -999 -999 -999
2007-05-09 13:02 51°8.76 2°35.826 -999 -999 -999 -999 -999
2007-05-09 13:03 51°8.742 2°35.741 -999 -999 -999 -999 -999
2007-05-09 13:04 51°8.724 2°35.655 -999 -999 -999 -999 -999
2007-05-09 13:05 51°8.702 2°35.571 -999 -999 -999 -999 -999
2007-05-09 13:06 51°8.673 2°35.491 -999 -999 -999 -999 -999
2007-05-09 13:07 51°8.637 2°35.419 -999 -999 -999 -999 -999
2007-05-09 13:08 51°8.597 2°35.356 -999 -999 -999 -999 -999
2007-05-09 13:09 51°8.56 2°35.291 -999 -999 -999 -999 -999
2007-05-09 13:10 51°8.532 2°35.219 -999 -999 -999 -999 -999
2007-05-09 13:11 51°8.517 2°35.142 -999 -999 -999 -999 -999
2007-05-09 13:12 51°8.499 2°35.064 -999 -999 -999 -999 -999
2007-05-09 13:13 51°8.484 2°34.987 -999 -999 -999 -999 -999
2007-05-09 13:14 51°8.488 2°34.91 -999 -999 -999 -999 -999
2007-05-09 13:15 51°8.505 2°34.842 -999 -999 -999 -999 -999
2007-05-09 13:16 51°8.527 2°34.779 -999 -999 -999 -999 -999
2007-05-09 13:17 51°8.558 2°34.752 -999 -999 -999 -999 -999
2007-05-09 13:18 51°8.582 2°34.76 -999 -999 -999 -999 -999
2007-05-09 13:19 51°8.608 2°34.771 -999 -999 -999 -999 -999
2007-05-09 13:20 51°8.686 2°34.858 -999 -999 -999 -999 -999
2007-05-09 13:21 51°8.859 2°34.96 -999 -999 -999 -999 -999
2007-05-09 13:22 51°9.056 2°35.07 -999 -999 -999 -999 -999
2007-05-09 13:23 51°9.253 2°35.186 -999 -999 -999 -999 -999
2007-05-09 13:24 51°9.448 2°35.304 -999 -999 -999 -999 -999
2007-05-09 13:25 51°9.643 2°35.426 -999 -999 -999 -999 -999
2007-05-09 13:26 51°9.84 2°35.55 -999 -999 -999 -999 -999
2007-05-09 13:27 51°10.035 2°35.68 -999 -999 -999 -999 -999
2007-05-09 13:28 51°10.226 2°35.812 -999 -999 -999 -999 -999
2007-05-09 13:29 51°10.414 2°35.951 -999 -999 -999 -999 -999
2007-05-09 13:30 51°10.572 2°36.163 -999 -999 -999 -999 -999
2007-05-09 13:31 51°10.731 2°36.377 -999 -999 -999 -999 -999
2007-05-09 13:32 51°10.886 2°36.6 -999 -999 -999 -999 -999
2007-05-09 13:33 51°11.019 2°36.857 -999 -999 -999 -999 -999
2007-05-09 13:34 51°11.152 2°37.112 -999 -999 -999 -999 -999
2007-05-09 13:35 51°11.285 2°37.368 -999 -999 -999 -999 -999
2007-05-09 13:36 51°11.404 2°37.643 -999 -999 -999 -999 -999
2007-05-09 13:37 51°11.511 2°37.932 -999 -999 -999 -999 -999
2007-05-09 13:38 51°11.618 2°38.221 -999 -999 -999 -999 -999
2007-05-09 13:39 51°11.726 2°38.51 -999 -999 -999 -999 -999
2007-05-09 13:40 51°11.834 2°38.799 -999 -999 -999 -999 -999
2007-05-09 13:41 51°11.939 2°39.092 -999 -999 -999 -999 -999
2007-05-09 13:42 51°12.041 2°39.388 -999 -999 -999 -999 -999
2007-05-09 13:43 51°12.144 2°39.683 -999 -999 -999 -999 -999
2007-05-09 13:44 51°12.247 2°39.976 -999 -999 -999 -999 -999
2007-05-09 13:45 51°12.349 2°40.27 -999 -999 -999 -999 -999
2007-05-09 13:46 51°12.451 2°40.565 -999 -999 -999 -999 -999
2007-05-09 13:47 51°12.554 2°40.859 -999 -999 -999 -999 -999
2007-05-09 13:48 51°12.657 2°41.154 -999 -999 -999 -999 -999
2007-05-09 13:49 51°12.76 2°41.45 -999 -999 -999 -999 -999
2007-05-09 13:50 51°12.862 2°41.748 -999 -999 -999 -999 -999
2007-05-09 13:51 51°12.955 2°42.054 -999 -999 -999 -999 -999
2007-05-09 13:52 51°13.037 2°42.371 -999 -999 -999 -999 -999
2007-05-09 13:53 51°13.131 2°42.679 -999 -999 -999 -999 -999
2007-05-09 13:54 51°13.227 2°42.989 -999 -999 -999 -999 -999
2007-05-09 13:55 51°13.324 2°43.297 -999 -999 -999 -999 -999
2007-05-09 13:56 51°13.42 2°43.604 -999 -999 -999 -999 -999
2007-05-09 13:57 51°13.515 2°43.911 -999 -999 -999 -999 -999
2007-05-09 13:58 51°13.611 2°44.22 -999 -999 -999 -999 -999
2007-05-09 13:59 51°13.708 2°44.524 -999 -999 -999 -999 -999
2007-05-09 14:00 51°13.806 2°44.826 -999 -999 -999 -999 -999
2007-05-09 14:01 51°13.902 2°45.128 -999 -999 -999 -999 -999
2007-05-09 14:02 51°13.999 2°45.428 -999 -999 -999 -999 -999
2007-05-09 14:03 51°14.096 2°45.731 -999 -999 -999 -999 -999
2007-05-09 14:04 51°14.172 2°46.049 -999 -999 -999 -999 -999
2007-05-09 14:05 51°14.202 2°46.386 -999 -999 -999 -999 -999
2007-05-09 14:06 51°14.234 2°46.723 -999 -999 -999 -999 -999
2007-05-09 14:07 51°14.255 2°47.06 -999 -999 -999 -999 -999
2007-05-09 14:08 51°14.277 2°47.4 -999 -999 -999 -999 -999
2007-05-09 14:09 51°14.3 2°47.738 -999 -999 -999 -999 -999
2007-05-09 14:10 51°14.327 2°48.074 -999 -999 -999 -999 -999
2007-05-09 14:11 51°14.354 2°48.41 -999 -999 -999 -999 -999
2007-05-09 14:12 51°14.38 2°48.746 -999 -999 -999 -999 -999
2007-05-09 14:13 51°14.407 2°49.083 -999 -999 -999 -999 -999
2007-05-09 14:14 51°14.435 2°49.42 -999 -999 -999 -999 -999
2007-05-09 14:15 51°14.462 2°49.758 -999 -999 -999 -999 -999
2007-05-09 14:16 51°14.49 2°50.098 -999 -999 -999 -999 -999
2007-05-09 14:17 51°14.519 2°50.439 -999 -999 -999 -999 -999
2007-05-09 14:18 51°14.54 2°50.781 -999 -999 -999 -999 -999
2007-05-09 14:19 51°14.56 2°51.124 -999 -999 -999 -999 -999
2007-05-09 14:20 51°14.581 2°51.468 -999 -999 -999 -999 -999
2007-05-09 14:21 51°14.601 2°51.812 -999 -999 -999 -999 -999
2007-05-09 14:22 51°14.621 2°52.157 -999 -999 -999 -999 -999
2007-05-09 14:23 51°14.642 2°52.502 -999 -999 -999 -999 -999
2007-05-09 14:24 51°14.649 2°52.847 -999 -999 -999 -999 -999
2007-05-09 14:25 51°14.659 2°53.194 -999 -999 -999 -999 -999
2007-05-09 14:26 51°14.67 2°53.539 -999 -999 -999 -999 -999
2007-05-09 14:27 51°14.642 2°53.884 -999 -999 -999 -999 -999
2007-05-09 14:28 51°14.603 2°54.226 -999 -999 -999 -999 -999
2007-05-09 14:29 51°14.524 2°54.551 -999 -999 -999 -999 -999
2007-05-09 14:30 51°14.424 2°54.863 -999 -999 -999 -999 -999
2007-05-09 14:31 51°14.31 2°55.16 -999 -999 -999 -999 -999
2007-05-09 14:32 51°14.167 2°55.382 -999 -999 -999 -999 -999
2007-05-09 14:33 51°14.024 2°55.492 -999 -999 -999 -999 -999
2007-05-09 14:34 51°13.895 2°55.586 -999 -999 -999 -999 -999
2007-05-09 14:35 51°13.77 2°55.687 -999 -999 -999 -999 -999
2007-05-09 14:36 51°13.703 2°55.802 -999 -999 -999 -999 -999
2007-05-09 14:37 51°13.662 2°55.894 -999 -999 -999 -999 -999
2007-05-09 14:38 51°13.629 2°55.972 -999 -999 -999 -999 -999
2007-05-09 14:39 51°13.615 2°56.043 -999 -999 -999 -999 -999